FW4002 Weather Reports


time (UTC)temp
C
wind
direction
speed
KPH
gust
KPH
rain 1hr
cm
rain 24hr
cm
rain mn
cm
humidity
%
barometer
mb
20260508220004 12 217 6.4 16.1 0.13 0.33 0.30 90 1009.5
20260508215424 12 220 4.8 14.5 0.13 0.30 0.28 90 1009.6
20260508214503 12 224 4.8 14.5 0.10 0.28 0.25 90 1009.6
20260508213604 12 227 4.8 14.5 0.10 0.28 0.25 90 1009.6
20260508212703 12 240 3.2 12.9 0.08 0.25 0.23 89 1009.7
20260508211824 13 251 4.8 14.5 0.08 0.23 0.20 87 1009.8
20260508210903 13 258 4.8 16.1 0.05 0.20 0.18 86 1009.8
20260508210024 13 244 6.4 24.1 0.05 0.20 0.18 85 1009.8
20260508205403 13 243 4.8 14.5 0.03 0.18 0.15 85 1009.8
20260508204503 13 226 6.4 19.3 0.03 0.18 0.15 84 1009.8
20260508203603 13 231 6.4 17.7 0.03 0.18 0.15 83 1009.8
20260508202704 14 219 9.7 22.5 0.03 0.18 0.15 80 1009.7
20260508201824 14 214 9.7 25.7 0.00 0.15 0.13 78 1009.9
20260508200903 15 211 6.4 17.7 0.00 0.15 0.13 77 1010.0
20260508200004 15 188 3.2 11.3 0.00 0.15 0.13 75 1009.9
20260508195403 14 160 1.6 6.4 0.00 0.15 0.13 76 1009.9
20260508194503 14 72 1.6 4.8 0.00 0.15 0.13 78 1009.8
20260508193603 14 13 1.6 6.4 0.00 0.15 0.13 77 1010.0
20260508192704 14 35 3.2 6.4 0.00 0.15 0.13 77 1010.1
20260508191824 14 48 1.6 6.4 0.00 0.15 0.13 76 1010.1
20260508190903 14 72 1.6 6.4 0.00 0.15 0.13 75 1010.3
20260508190003 13 70 1.6 4.8 0.00 0.15 0.13 76 1010.5
20260508185424 13 78 1.6 6.4 0.00 0.15 0.13 77 1010.6
20260508184504 13 60 1.6 6.4 0.00 0.15 0.13 79 1010.8
20260508183603 13 36 1.6 4.8 0.00 0.15 0.13 79 1010.8
20260508182703 13 328 0.0 3.2 0.00 0.15 0.13 78 1010.9
20260508181803 13 0 0.0 0.0 0.00 0.15 0.13 79 1011.0
20260508180903 13 264 0.0 1.6 0.00 0.15 0.13 79 1011.2
20260508180003 13 264 0.0 3.2 0.00 0.15 0.13 78 1011.3
20260508175403 13 264 0.0 3.2 0.00 0.15 0.13 80 1011.4
20260508174503 12 268 0.0 3.2 0.00 0.15 0.13 80 1011.6
20260508173603 12 242 0.0 3.2 0.00 0.15 0.13 81 1011.8
20260508172703 12 270 0.0 4.8 0.00 0.15 0.13 80 1012.1
20260508171803 12 222 0.0 4.8 0.00 0.15 0.13 80 1012.1
20260508170903 13 244 3.2 9.7 0.00 0.15 0.13 78 1012.1
20260508170003 13 218 6.4 17.7 0.00 0.15 0.13 77 1012.2
20260508165403 13 215 9.7 19.3 0.00 0.15 0.13 78 1012.1
20260508164503 12 209 6.4 17.7 0.00 0.15 0.13 82 1012.1
20260508163603 12 217 4.8 12.9 0.03 0.15 0.13 88 1012.3
20260508162703 11 222 4.8 12.9 0.05 0.15 0.13 89 1012.5
20260508161826 10 223 3.2 19.3 0.08 0.15 0.13 90 1012.8
20260508160924 10 209 3.2 14.5 0.10 0.15 0.13 90 1012.9
20260508160004 10 220 3.2 9.7 0.10 0.15 0.13 90 1013.0
20260508155403 10 216 3.2 9.7 0.10 0.15 0.13 90 1013.1
20260508154504 10 208 3.2 11.3 0.13 0.15 0.13 89 1013.2
20260508153603 10 232 3.2 11.3 0.10 0.13 0.10 88 1013.2
20260508152703 10 249 1.6 11.3 0.08 0.10 0.08 87 1013.3
20260508151803 10 239 3.2 12.9 0.05 0.08 0.05 87 1013.4
20260508150903 10 235 4.8 16.1 0.03 0.05 0.03 86 1013.5
20260508150004 10 234 4.8 12.9 0.03 0.05 0.03 85 1013.5
20260508145403 10 234 3.2 12.9 0.03 0.05 0.03 85 1013.5
20260508144503 10 231 4.8 16.1 0.00 0.03 0.00 83 1013.7
20260508143603 10 220 6.4 12.9 0.00 0.03 0.00 81 1013.4
20260508142703 11 216 3.2 11.3 0.00 0.03 0.00 80 1012.9
20260508141803 11 236 1.6 8.0 0.00 0.03 0.00 79 1013.1
20260508140903 11 232 1.6 6.4 0.00 0.03 0.00 78 1013.2
20260508140004 11 232 1.6 9.7 0.00 0.03 0.00 77 1013.2
20260508135403 11 224 3.2 11.3 0.00 0.03 0.00 77 1013.1
20260508134503 11 234 1.6 12.9 0.00 0.03 0.00 76 1012.9
20260508133603 11 237 3.2 12.9 0.00 0.03 0.00 76 1013.1
20260508132703 11 235 3.2 12.9 0.00 0.03 0.00 76 1013.2
20260508131803 11 219 3.2 12.9 0.00 0.03 0.00 76 1012.9
20260508130903 10 223 3.2 16.1 0.00 0.03 0.00 76 1013.1
20260508130004 10 218 3.2 12.9 0.00 0.03 0.00 76 1013.2
20260508125403 10 212 3.2 12.9 0.00 0.03 0.00 77 1013.0
20260508124503 10 219 4.8 12.9 0.00 0.03 0.00 77 1013.1
20260508123603 10 221 3.2 12.9 0.00 0.03 0.00 76 1012.9
20260508122724 10 217 3.2 9.7 0.00 0.03 0.00 77 1012.9
20260508121803 10 226 3.2 11.3 0.00 0.03 0.00 77 1012.9
20260508120903 10 219 3.2 11.3 0.00 0.03 0.00 77 1012.9
20260508120004 10 226 3.2 11.3 0.00 0.03 0.00 78 1012.9
20260508115403 10 242 3.2 14.5 0.00 0.03 0.00 77 1012.8
20260508114503 9 240 3.2 14.5 0.00 0.03 0.00 77 1012.8
20260508113624 9 231 3.2 11.3 0.00 0.03 0.00 77 1012.7
20260508112703 9 226 1.6 8.0 0.00 0.03 0.00 77 1012.5
20260508111803 9 223 3.2 12.9 0.00 0.03 0.00 77 1012.5
20260508110903 9 224 6.4 16.1 0.00 0.03 0.00 77 1012.4
20260508110003 8 225 3.2 11.3 0.00 0.03 0.00 77 1012.3
20260508105403 8 225 4.8 11.3 0.00 0.03 0.00 77 1012.2
20260508104503 8 221 4.8 17.7 0.00 0.03 0.00 77 1012.3
20260508103603 8 221 3.2 14.5 0.00 0.03 0.00 77 1012.3
20260508102724 8 220 4.8 17.7 0.00 0.03 0.00 77 1012.2
20260508101803 8 225 4.8 12.9 0.00 0.03 0.00 77 1012.2
20260508100903 8 232 3.2 12.9 0.00 0.03 0.00 76 1012.1
20260508100003 8 226 4.8 12.9 0.00 0.03 0.00 76 1012.1
20260508095424 8 229 4.8 12.9 0.00 0.03 0.00 76 1012.2
20260508094503 8 228 4.8 11.3 0.00 0.03 0.00 76 1012.3
20260508093603 8 223 4.8 12.9 0.00 0.03 0.00 75 1012.4
20260508092703 8 225 4.8 14.5 0.00 0.03 0.00 75 1012.4
20260508091803 8 230 6.4 17.7 0.00 0.03 0.00 75 1012.3
20260508090903 8 225 6.4 16.1 0.00 0.03 0.00 76 1012.4
20260508090004 8 230 4.8 14.5 0.00 0.03 0.00 76 1012.5
20260508085403 8 224 4.8 14.5 0.00 0.03 0.00 76 1012.4
20260508084503 8 224 6.4 19.3 0.00 0.03 0.00 76 1012.4
20260508083603 8 224 6.4 17.7 0.00 0.03 0.00 78 1012.4
20260508082703 8 220 4.8 12.9 0.00 0.03 0.00 79 1012.3
20260508081803 7 224 6.4 14.5 0.00 0.03 0.00 81 1012.3
20260508080924 7 217 4.8 14.5 0.00 0.03 0.00 82 1012.3
20260508080003 7 214 4.8 9.7 0.00 0.03 0.00 83 1012.3
20260508075403 7 212 3.2 9.7 0.00 0.03 0.00 83 1012.3
20260508074503 7 215 4.8 9.7 0.00 0.03 0.00 84 1012.4
20260508073603 7 211 3.2 9.7 0.00 0.03 0.00 85 1012.4
20260508072703 7 206 4.8 11.3 0.00 0.03 0.00 86 1012.5
20260508071824 7 213 3.2 9.7 0.00 0.03 0.00 86 1012.6
20260508070903 7 220 1.6 8.0 0.00 0.03 0.00 87 1012.6
20260508070003 7 213 3.2 9.7 0.00 0.03 0.00 87 1012.7
20260508065403 7 207 1.6 6.4 0.00 0.03 0.00 87 1012.7
20260508064503 7 207 1.6 4.8 0.00 0.03 0.00 87 1012.8
20260508063603 7 199 1.6 6.4 0.00 0.03 0.00 87 1012.8
20260508062703 7 197 1.6 6.4 0.00 0.03 0.00 87 1012.9
20260508061803 7 203 1.6 4.8 0.00 0.03 0.00 87 1013.0
20260508060903 7 194 1.6 4.8 0.00 0.03 0.00 86 1013.0
20260508060003 8 198 1.6 8.0 0.00 0.03 0.00 86 1013.2
20260508055403 8 197 1.6 6.4 0.00 0.03 0.00 86 1013.2
20260508054503 8 194 0.0 4.8 0.00 0.03 0.00 86 1013.3
20260508053603 8 194 1.6 6.4 0.00 0.03 0.00 86 1013.3
20260508052703 8 196 1.6 6.4 0.00 0.03 0.00 86 1013.3
20260508051803 8 194 1.6 6.4 0.00 0.03 0.00 85 1013.4
20260508050903 8 200 1.6 4.8 0.00 0.03 0.00 85 1013.4
20260508050003 8 203 1.6 4.8 0.00 0.03 0.00 84 1013.5
20260508045403 8 205 1.6 3.2 0.00 0.03 0.00 84 1013.6
20260508044524 8 208 0.0 4.8 0.00 0.03 0.00 84 1013.5
20260508043603 8 209 0.0 4.8 0.00 0.03 0.00 84 1013.4
20260508042703 9 0 0.0 0.0 0.00 0.03 0.00 83 1013.5
20260508041803 9 0 0.0 0.0 0.03 0.03 0.00 83 1013.6
20260508040903 9 285 0.0 1.6 0.03 0.03 0.00 82 1013.6
20260508040004 9 285 0.0 1.6 0.03 0.03 0.00 81 1013.7
20260508035403 9 307 1.6 4.8 0.03 0.03 0.03 81 1013.7
20260508034503 9 277 3.2 12.9 0.03 0.03 0.03 80 1014.0
20260508033603 9 255 1.6 12.9 0.03 0.03 0.03 79 1014.1
20260508032703 10 281 3.2 11.3 0.03 0.03 0.03 78 1014.2
20260508031803 10 224 4.8 11.3 0.00 0.00 0.00 76 1013.8
20260508030903 10 218 3.2 11.3 0.00 0.00 0.00 75 1013.2
20260508030004 10 212 8.0 16.1 0.00 0.00 0.00 72 1013.2
20260508025403 10 210 6.4 14.5 0.00 0.00 0.00 71 1013.2
20260508024503 10 204 3.2 9.7 0.00 0.00 0.00 71 1013.1
20260508023624 10 201 3.2 12.9 0.00 0.00 0.00 71 1013.1
20260508022703 10 204 3.2 11.3 0.00 0.00 0.00 70 1013.1
20260508021803 10 201 1.6 8.0 0.00 0.00 0.00 70 1013.0
20260508020924 10 210 4.8 12.9 0.00 0.00 0.00 69 1013.0
20260508020003 10 210 3.2 9.7 0.00 0.00 0.00 68 1013.1
20260508015403 10 211 3.2 11.3 0.00 0.00 0.00 67 1013.1
20260508014504 10 205 3.2 9.7 0.00 0.00 0.00 66 1013.1
20260508013603 11 211 3.2 8.0 0.00 0.00 0.00 65 1013.1
20260508012724 11 199 3.2 12.9 0.00 0.00 0.00 64 1013.1
20260508011824 11 204 1.6 11.3 0.00 0.00 0.00 63 1013.0
20260508010903 11 204 1.6 6.4 0.00 0.00 0.00 63 1013.1
20260508010003 11 215 3.2 9.7 0.00 0.00 0.00 61 1013.1
20260508005403 11 207 1.6 6.4 0.00 0.00 0.00 62 1013.2
20260508004503 11 217 1.6 8.0 0.00 0.00 0.00 62 1013.2
20260508003603 11 221 1.6 6.4 0.00 0.00 0.00 61 1013.1
20260508002703 11 241 1.6 8.0 0.00 0.00 0.00 60 1013.1
20260508001803 11 283 0.0 4.8 0.00 0.00 0.00 59 1013.0
20260508000903 11 260 0.0 4.8 0.00 0.00 0.00 58 1013.1
20260508000024 11 281 0.0 4.8 0.00 0.00 0.00 58 1013.1
20260507235403 11 292 1.6 4.8 0.00 0.00 0.00 57 1013.0
20260507234503 11 271 1.6 12.9 0.00 0.00 0.00 56 1013.1
20260507233603 11 280 3.2 12.9 0.00 0.00 0.00 56 1013.1
20260507232726 11 307 1.6 8.0 0.00 0.00 0.00 57 1013.2
20260507231803 11 274 3.2 12.9 0.00 0.00 0.00 56 1013.6
20260507230903 11 240 4.8 14.5 0.00 0.00 0.00 56 1013.8
20260507230003 12 268 4.8 20.9 0.00 0.00 0.00 55 1014.0
20260507225403 12 261 6.4 19.3 0.00 0.00 0.00 55 1014.0
20260507224504 12 254 6.4 22.5 0.00 0.00 0.00 53 1014.0
20260507223603 12 284 8.0 19.3 0.00 0.00 0.00 52 1014.0
20260507222724 12 261 4.8 16.1 0.00 0.00 0.00 49 1014.0
20260507221803 12 272 6.4 17.7 0.00 0.00 0.00 47 1013.8
20260507220903 13 278 9.7 25.7 0.00 0.00 0.00 47 1013.8